Regional Weather Roundup
Issued by NWS

Home | Current Version | Previous Version | Graphics & Text | Print | Product List | Glossary On
Versions: 1 2 3 4 5 6 7 8 9 10 11 12 13 14 15 16 17 18 19 20 21 22 23 24 25 26 27 28 29 30 31 32 33 34 35 36 37 38 39 40 41 42 43 44 45 46 47 48 49 50
000
ASUS43 KIND 302009
RWRIN

WEATHER ROUNDUP FOR INDIANA
NATIONAL WEATHER SERVICE INDIANAPOLIS IN
400 PM EDT WED JUL 30 2014

NOTE: "FAIR" INDICATES FEW OR NO CLOUDS BELOW 12,000 FEET WITH NO
SIGNIFICANT WEATHER AND/OR OBSTRUCTIONS TO VISIBILITY.

* - STATION DOES NOT REPORT WEATHER SUCH AS PRECIPITATION OR FOG.

+ - STATION NOT QUALITY CONTROLLED BY THE NATIONAL WEATHER SERVICE.
    USE DATA WITH CAUTION...ESPECIALLY DEWPOINT AND RELATIVE
    HUMIDITY OBSERVATIONS.

INZ001>003-010>013-019-020-302100-
NORTHWEST INDIANA

CITY           SKY/WX    TMP DP  RH WIND       PRES   REMARKS
GARY /AIRPORT/ MOSUNNY   73  63  68 NE9       30.03S
KNOX *+        CLOUDY    75  56  52 NW6       30.01F
LA PORTE +     SUNNY     76  52  43 NW9G17    30.03F
MICHIGAN CITY+ SUNNY     72  55  56 N7        30.04S
MONTICELLO +   MOSUNNY   77  61  58 W7        30.02F
RENSSELAER +   PTSUNNY   77  61  57 W10G16    30.03S
VALPARAISO     PTSUNNY   76  55  48 W7        30.02F

$$

LMZ046-743>745-302100-
SOUTHERN LAKE MICHIGAN

STATION/POSITION TIME  TEMP WIND        PRES
                       AIR  DIR/SP/G
                 (UTC) (F)  (DEG/KT/KT) (MB)
MICHIGAN CITY    2000   65   20/ 10/ 11   N/A

$$

INZ004-005-014>016-021>024-302100-
NORTH CENTRAL INDIANA

CITY           SKY/WX    TMP DP  RH WIND       PRES   REMARKS
GOSHEN         MOSUNNY   77  57  50 W13       30.02S
LOGANSPORT +   MOSUNNY   77  57  50 W10       30.03F
PERU/GRISSOM   MOSUNNY   78  61  55 W14       30.02F
ROCHESTER +    MOSUNNY   79  55  44 NW7       30.03F
SOUTH BEND     SUNNY     77  56  48 W14       30.03S
WARSAW +       PTSUNNY   77  59  53 W12       30.02F

$$

INZ006>009-017-018-025>027-302100-
NORTHEAST INDIANA

CITY           SKY/WX    TMP DP  RH WIND       PRES   REMARKS
ANGOLA *+      PTSUNNY   75  57  53 VRB6      30.00F
AUBURN +       MOSUNNY   77  54  44 W9        30.02F
FORT WAYNE     MOSUNNY   77  57  50 NW7       30.02F
HUNTINGTON +   MOSUNNY   77  58  51 W13G21    30.01F

$$

INZ028-029-035-036-043>045-051>053-302100-
WEST CENTRAL INDIANA

CITY           SKY/WX    TMP DP  RH WIND       PRES   REMARKS
GREENCASTLE +  MOSUNNY   77  63  61 S3        30.05F
LAFAYETTE      MOSUNNY   78  60  53 W8        30.02F
TERRE HAUTE    CLOUDY    79  59  50 W10G17    30.05S

$$

INZ030>032-037>040-046>048-054>057-064-065-302100-
CENTRAL INDIANA

CITY           SKY/WX    TMP DP  RH WIND       PRES   REMARKS
ANDERSON       MOSUNNY   75  59  57 NW12G17   30.04F
CP ATTERBURY + MOSUNNY   77  63  61 W7        30.05S
COLUMBUS       PTSUNNY   73  63  68 W5        30.05S
INDIANAPOLIS   PTSUNNY   76  58  53 W12       30.04F
-EAGLE CREEK   PTSUNNY   75  58  55 NW10      30.03F
KOKOMO *+      MOSUNNY   79  61  53 W9        30.03F
MARION +       SUNNY     75  58  53 W12       30.03F
MT COMFORT *+  PTSUNNY   73  66  78 SW10G16   30.04F
SHELBYVILLE    PTSUNNY   73  62  68 S8        30.05F
ZIONSVILLE +   PTSUNNY   76  58  51 NW8       30.05S

$$

INZ033-034-041-042-049-050-058-059-302100-
EAST CENTRAL INDIANA

CITY           SKY/WX    TMP DP  RH WIND       PRES   REMARKS
MUNCIE         MOSUNNY   78  58  49 NW14      30.03F

$$

INZ060-061-067>069-081>083-085>088-302100-
SOUTHWEST INDIANA

CITY           SKY/WX    TMP DP  RH WIND       PRES   REMARKS
EVANSVILLE     SUNNY     83  53  35 VRB7      30.08S
WASHINGTON +   MOSUNNY   78  62  57 W8        30.06F

$$

INZ062-063-066-070>080-084-089>092-302100-
SOUTH CENTRAL AND SOUTHEAST INDIANA

CITY           SKY/WX    TMP DP  RH WIND       PRES   REMARKS
BLOOMINGTON    CLOUDY    75  59  57 W6        30.06F
NORTH VERNON + MOSUNNY   79  59  50 W10G16    30.06F

$$



USA.gov is the U.S. government's official web portal to all federal, state and local government web resources and services.